Voltar ao catálogo

STARLINK-31003

AtivoComunicaçõesVLEO
NORAD 58520·PAYLOAD·🇺🇸 United States

Lançado Dec 7, 2023 de Cape Canaveral Space Force Station

Loading…

Próximas Passagens (próximas 24 horas)

TLE

AtualizadoSource: CelesTrak SupGP

Época: Sep 15, 2026, 03:24 UTC

1 58520C 23191N   26258.14215278  .00028728  00000+0  10401-2 0  2581
2 58520  42.9992 113.1052 0001385 276.3947 326.3516 15.27576696    16

Acompanhe STARLINK-31003 em tempo real com AllMySat

Download on the App Store